Flag for U.S.A. Weather past 2 weeks in Seattle, Washington, U.S.A.

Now
47 °F

Overcast.


Feels Like: 46 °F
Forecast: 44 / 50 °F
Wind: 3 mph from Southeast

Location: Seattle Boeing Field

Current Time: Dec 18, 2014 at 8:41:40 AM

Latest Report: Dec 18, 2014 at 7:53 AM


Visibility: 10 mi

Pressure: 29.94 "Hg

Humidity: 86%

Dew point: 43 °F

Location of SeattleLocation

Historic Weather in Seattle — Graph

°F

Seattle temperature yesterday

Maximum temperature yesterday: 51 °F (at 12:53 PM)
Minimum temperature yesterday: 44 °F (at 12:53 AM)
Average temperature yesterday: 48 °F

Past Weeks' High & Low Weather Summary

 TemperatureHumidityPressure
High68 °F (Dec 10, 10:53 AM)93% (Dec 7, 9:55 AM)30.24 "Hg (Dec 7, 9:55 AM)
Low36 °F (Dec 3, 6:53 AM)27% (Dec 14, 3:53 PM)29.13 "Hg (Dec 11, 3:53 PM)
Average50 °F70%29.86 "Hg
* Reported Dec 3 6:53 AM — Dec 18 6:53 AM, Seattle, Weather by CustomWeather, © 2014

Note: Actual official high and low records may vary slightly from our data, if they occured in-between our weather recording intervals... More about our weather records

Advertising

Seattle weather history for previous 24 hours

 ConditionsComfort  
Time TempWeatherWind HumidityBarometerVisibility
6:53 AM
Dec 18
47 °FOvercast.3 mph83%29.94 "Hg10 mi
5:53 AM47 °FPassing clouds.3 mph86%29.94 "Hg10 mi
4:56 AM46 °FPassing clouds.5 mph87%29.94 "Hg10 mi
3:53 AM47 °FMostly cloudy.9 mph90%29.95 "Hg9 mi
2:53 AM47 °FLow clouds.8 mph90%29.95 "Hg9 mi
1:53 AM47 °FLight rain. Fog.6 mph90%29.94 "Hg3 mi
12:57 AM46 °FLight rain. Fog.No wind93%29.93 "Hg4 mi
11:53 PM
Dec 17
47 °FLight rain. Mostly cloudy.3 mph86%29.93 "Hg7 mi
10:53 PM48 °FLight rain. Overcast.No wind83%29.92 "Hg10 mi
9:53 PM48 °FLight rain. Mostly cloudy.No wind86%29.91 "Hg9 mi
8:53 PM49 °FLight rain. Mostly cloudy.No wind84%29.92 "Hg8 mi
7:53 PM49 °FLight rain. Mostly cloudy.3 mph84%29.91 "Hg5 mi
6:53 PM49 °FOvercast.5 mph84%29.90 "Hg10 mi
5:53 PM49 °FOvercast.3 mph77%29.89 "Hg10 mi
4:53 PM50 °FOvercast.No wind71%29.87 "Hg10 mi
3:53 PM51 °FMostly cloudy.No wind69%29.85 "Hg10 mi
2:53 PM51 °FOvercast.No wind71%29.84 "Hg10 mi
1:53 PM51 °FOvercast.No wind69%29.83 "Hg10 mi
12:53 PM51 °FOvercast.No wind69%29.83 "Hg10 mi
11:53 AM50 °FOvercast.No wind71%29.84 "Hg10 mi
10:53 AM50 °FOvercast.No wind71%29.84 "Hg10 mi
9:53 AM49 °FOvercast.No wind77%29.83 "Hg10 mi
8:53 AM47 °FLight rain. Overcast.No wind83%29.82 "Hg10 mi
Weather by CustomWeather, © 2014

See weather overviewHow to use our weather pages